Voltar ao catálogo

STARLINK-31975

AtivoComunicaçõesVLEO
NORAD 59886·PAYLOAD·🇺🇸 United States

Lançado May 28, 2024 de Cape Canaveral Space Force Station

Loading…

Próximas Passagens (próximas 24 horas)

TLE

AtualizadoSource: CelesTrak SupGP

Época: Sep 14, 2026, 14:15 UTC

1 59886C 24100B   26257.59423611  .00037644  00000+0  13639-2 0  2570
2 59886  42.9994 138.5997 0001455 262.5840 217.9247 15.27548281    15

Acompanhe STARLINK-31975 em tempo real com AllMySat

Download on the App Store